Tracking 29777 objects as of 4-Oct-2024
HD Live streaming from Space Station
objects crossing your sky now

COSMOS 1823 DEB

Track COSMOS 1823 DEB now!
10-day predictions


NORAD ID: 18758
Int'l Code: 1987-020AK
Perigee: 1,481.3 km
Apogee: 1,563.3 km
Inclination: 73.6 °
Period: 116.3 minutes
Semi major axis: 7893 km
RCS: 0.06 m2 (small)
Launch date: February 20, 1987
Source: Commonwealth of Independent States (former USSR) (CIS)
Launch site: PLESETSK MISSILE AND SPACE COMPLEX (PKMTR)

Note: This is SATELLITE DEBRIS
Your satellite tracking list
Your tracking list is empty




NASA's NSSDC Master Catalog

Two Line Element Set (TLE):
1 18758U 87020AK  24278.55789394  .00000125  00000-0  10887-2 0  9993
2 18758  73.6250 304.8882 0051898 156.7147 329.0785 12.37981975661390
Source of the keplerian elements: AFSPC